ARIANE 2 DEB, 33578

Orbit data source: Space-Track

ARIANE 2 DEB, 33578 is space debris in HEO originally from a launch on Fri, 27 Jan 1989 UTC launched from the French Guiana (FRGUI). Debris objects in space refer to the collection of defunct objects orbiting the Earth. Examples of debris include non-operational satellites, rocket bodies, and fragments generated from explosions, collisions, or faulty payload assembly.

Loading next visibility...
Identifier
33578, 1989-006BW
Orbit
HEO
Country
Flag of FRFR
Related business
Manufacturer
EADS/LV
Mission
Spacecraft
Bus & Motor
Unknown
Mass
Unknown
Launch date (UTC)
1989-01-27 (37 years ago)
Launch vehicle
Unknown
Launch site
French Guiana (FRGUI)
Object type
Payload
Rocket body
Debris
Shape & HBR
Unknown shape, 0.2 m
Radar Cross Section
Medium (>0.1 m² and <1 m²)

Expand to show TLE details & history
Last TLE update: 6 days ago

TLE from 6 days ago
0 ARIANE 2 DEB
1 33578U 89006BW  25343.85369804  .00000087  00000-0  10551-2 0  9998
2 33578   8.1046  95.6339 7145850  38.1614 355.0880  2.31081308160771
Epoch: 2025-12-09T20:29Z
TLE epoch observation values (Epoch: 2025-12-09T20:29:19.510Z)
Latitude
Longitude
69.31572°
Altitude
1,201.368 km
Speed
9.417 km/s
True Right ascension
06h 21m 55s
True Declination
0° 00' 00"
Sunlit
Object was in full shadow at epoch
Visualization orbit readout
Latitude
Unknown
Longitude
Unknown
Altitude
Unknown
Speed
Unknown
Apparent Right ascension
Unknown
Apparent Declination
Unknown
Sunlit
N/A
Visualization observer readout
Local Sidereal Time
03:10:45
Azimuth
Unknown
Elevation
Unknown
Doppler factor
Unknown
Orbital elements
Apogee altitude
35,067.364 km
Perigee altitude
521.006 km
Semi-major axis
24,172.322 km
Eccentricity
0.71459
Inclination
8.1046°
RAAN
95.6339°
Arg. of periapsis
38.1614°
True anomaly
320.58759°
Mean anomaly
355.088°
Eccentric anomaly
343.37191°
Mean motion
0.57752 °/min
Orbital period
623.36 mins
BSTAR
0.0010551
Loading maneuver chart data...
Computing Atmospheric mass density...
Loading historical data...
Loading historical data...
Loading historical data...
Loading historical data...
Loading historical data...
Loading historical data...
Loading historical data...

Documentation

Showing up to 5 results
|